User: anonymous   Login
Location: Bittelbronn
(48.4454°N, 8.5870°E)
Time: 21:57:06
(UTC+00:00)
Language:

SL-4 R/B - Orbit

View from above orbital plane
View from above orbital plane
View from above satellite
View from above satellite

Ground track
Ground track

The orbit data is extracted from the following two-line orbital elements,

1 39679U 14021B   24197.43692648  .00015468  00000-0  55815-3 0  9998
2 39679  51.6080 355.0764 0135333  97.7324 263.9043 15.20439935564065
Epoch (UTC): 15 July 2024 10:29:10
Eccentricity: 0.0135333
inclination: 51.6080°
perigee height: 411 km
apogee height: 597 km
right ascension of ascending node: 355.0764°
argument of perigee: 97.7324°
revolutions per day: 15.20439935
mean anomaly at epoch: 263.9043°
orbit number at epoch: 56406

The dashed part of the orbit path shows where the satellite is in the earth's shadow,  

DLR